Flag for France Weather past 2 weeks in Toulouse, France

Now
73 °F

Clear.


Feels Like: 76 °F
Forecast: 69 / 88 °F
Wind: 13 mph from Southeast

Location: Toulouse / Blagnac

Current Time: Aug 30, 2015 at 2:21:16 AM

Latest Report: Aug 30, 2015 at 1:30 AM


Visibility: 10 mi

Pressure: 30.04 "Hg

Humidity: 65%

Dew point: 61 °F

Location of ToulouseLocation

Historic Weather in Toulouse — Graph

°F

Toulouse temperature yesterday

Maximum temperature yesterday: 88 °F (at 3:30 PM)
Minimum temperature yesterday: 72 °F (at 5:00 AM)
Average temperature yesterday: 78 °F

Past Weeks' High & Low Weather Summary

 TemperatureHumidityPressure
High90 °F (Aug 21, 4:00 PM)100% (Aug 15, 7:00 AM)30.21 "Hg (Aug 15, 7:00 AM)
Low54 °F (Aug 16, 6:30 AM)22% (Aug 21, 4:30 PM)29.65 "Hg (Aug 24, 1:30 AM)
Average71 °F63%30.00 "Hg
* Reported Aug 15 1:00 AM — Aug 30 1:00 AM, Toulouse, Weather by CustomWeather, © 2015

Note: Actual official high and low records may vary slightly from our data, if they occured in-between our weather recording intervals... More about our weather records

Advertising

Toulouse weather history for previous 24 hours

 ConditionsComfort  
Time TempWeatherWind HumidityBarometerVisibility
1:00 AM
Sun, Aug 30
73 °FClear.13 mph65%30.04 "Hg10 mi
12:30 AM73 °FClear.13 mph65%30.04 "Hg10 mi
12:00 AM73 °FPassing clouds.15 mph69%30.04 "HgN/A
11:30 PM
Sat, Aug 29
73 °FClear.14 mph69%30.04 "Hg10 mi
11:00 PM73 °FClear.12 mph69%30.04 "Hg10 mi
10:30 PM75 °FClear.14 mph65%30.04 "Hg10 mi
10:00 PM75 °FClear.13 mph61%30.04 "Hg10 mi
9:30 PM77 °FSunny.12 mph57%30.04 "Hg10 mi
9:00 PM79 °FSunny.15 mph51%30.04 "Hg10 mi
8:30 PM79 °FPassing clouds.15 mph51%30.04 "HgN/A
8:00 PM81 °FSunny.16 mph51%30.01 "Hg10 mi
7:30 PM82 °FSunny.15 mph51%30.01 "Hg10 mi
7:00 PM82 °FPassing clouds.16 mph51%30.01 "HgN/A
6:30 PM84 °FSunny.20 mph48%30.01 "Hg10 mi
6:00 PM86 °FPassing clouds.17 mph43%30.01 "HgN/A
5:30 PM88 °FSunny.16 mph40%30.01 "Hg10 mi
5:00 PM88 °FPassing clouds.16 mph40%30.04 "HgN/A
4:30 PM88 °FSunny.16 mph40%30.04 "Hg10 mi
4:00 PM88 °FPassing clouds.15 mph40%30.04 "HgN/A
3:30 PM88 °FPassing clouds.16 mph40%30.04 "HgN/A
3:00 PM86 °FPassing clouds.17 mph43%30.04 "HgN/A
2:30 PM86 °FPassing clouds.18 mph43%30.07 "HgN/A
2:00 PM86 °FPassing clouds.20 mph46%30.07 "HgN/A
1:30 PM84 °FSunny.18 mph48%30.07 "Hg10 mi
1:00 PM84 °FSunny.15 mph51%30.07 "Hg10 mi
12:00 PM81 °FPassing clouds.20 mph58%30.07 "HgN/A
11:00 AM79 °FPassing clouds.15 mph61%30.09 "HgN/A
10:00 AM77 °FPassing clouds.16 mph65%30.09 "HgN/A
9:30 AM75 °FSunny.16 mph74%30.09 "Hg10 mi
9:00 AM73 °FSunny.14 mph78%30.07 "Hg10 mi
8:00 AM72 °FClear.12 mph78%30.07 "Hg10 mi
7:30 AM72 °FClear.13 mph83%30.07 "Hg10 mi
7:00 AM72 °FPassing clouds.9 mph83%30.07 "HgN/A
6:00 AM72 °FPassing clouds.16 mph88%30.04 "HgN/A
5:00 AM72 °FPassing clouds.13 mph88%30.04 "HgN/A
4:30 AM73 °FPassing clouds.13 mph83%30.04 "HgN/A
4:00 AM73 °FClear.12 mph83%30.07 "Hg10 mi
3:30 AM73 °FPassing clouds.9 mph83%30.07 "HgN/A
3:00 AM73 °FClear.9 mph83%30.07 "Hg10 mi
2:30 AM73 °FPassing clouds.8 mph83%30.07 "HgN/A
2:00 AM73 °FPassing clouds.12 mph83%30.07 "HgN/A
Weather by CustomWeather, © 2015

See weather overviewHow to use our weather pages